User: anonymous   Login
Location: Unspecified
(0.0000°N, 0.0000°E)
Time: 08:35:59
(UTC+00:00)
Language:

VENTA 1 - Orbit

View from above orbital plane
View from above orbital plane
View from above satellite
View from above satellite

Ground track
Ground track

The orbit data is extracted from the following two-line orbital elements,

1 42791U 17036AC  18267.71919731 +.00001346 +00000-0 +61577-4 0  9996
2 42791 097.3912 325.9956 0013084 088.9211 271.3524 15.22169616069648
Epoch (UTC): 24 September 2018 17:15:38
Eccentricity: 0.0013084
inclination: 97.3912°
perigee height: 490 km
apogee height: 508 km
right ascension of ascending node: 325.9956°
argument of perigee: 88.9211°
revolutions per day: 15.22169616
mean anomaly at epoch: 271.3524°
orbit number at epoch: 6964

The dashed part of the orbit path shows where the satellite is in the earth's shadow,  

DLR